FW9540 Weather Reports


time (UTC)temp
F
wind
direction
speed
knots
gust
knots
rain 1hr
in
rain 24hr
in
rain mn
in
humidity
%
barometer
mb
20260507095657 64 222 0.0 2.6 0.00 0.00 0.00 74 1011.0
20260507094629 64 215 0.0 3.5 0.00 0.00 0.00 74 1011.0
20260507094102 63 196 0.0 2.6 0.00 0.00 0.00 75 1011.0
20260507093600 64 202 0.0 3.5 0.00 0.00 0.00 78 1011.1
20260507093058 64 195 0.0 3.5 0.00 0.00 0.00 79 1011.1
20260507092553 63 26 0.0 3.5 0.00 0.00 0.00 77 1011.2
20260507092048 63 34 0.0 3.5 0.00 0.00 0.00 76 1011.1
20260507091546 63 109 0.0 3.5 0.00 0.00 0.00 77 1011.2
20260507090539 63 107 0.0 2.6 0.00 0.00 0.00 78 1011.2
20260507090037 62 107 0.0 0.0 0.00 0.00 0.00 77 1011.1
20260507085515 62 127 0.0 2.6 0.00 0.00 0.00 77 1011.2
20260507085016 62 162 0.0 2.6 0.00 0.00 0.00 79 1011.3
20260507084512 61 162 0.0 2.6 0.00 0.00 0.00 79 1011.3
20260507084009 61 89 0.0 2.6 0.00 0.00 0.00 79 1011.3
20260507083503 60 59 0.0 3.5 0.00 0.00 0.00 79 1011.3
20260507083007 60 59 0.0 3.5 0.00 0.00 0.00 80 1011.3
20260507081912 60 44 0.9 3.5 0.00 0.00 0.00 80 1011.3
20260507081343 60 44 0.0 2.6 0.00 0.00 0.00 80 1011.3
20260507080840 60 44 0.0 2.6 0.00 0.00 0.00 81 1011.3
20260507080337 60 44 0.0 3.5 0.00 0.00 0.00 80 1011.4
20260507075812 60 44 0.9 3.5 0.00 0.00 0.00 82 1011.3
20260507075245 59 44 0.0 2.6 0.00 0.00 0.00 84 1011.3
20260507074717 59 44 0.0 0.9 0.00 0.00 0.00 83 1011.3
20260507074215 58 44 0.0 0.9 0.00 0.00 0.00 83 1011.2
20260507073712 58 44 0.0 2.6 0.00 0.00 0.00 84 1011.2
20260507073148 57 44 0.0 2.6 0.00 0.00 0.00 86 1011.2
20260507072620 57 44 0.0 0.9 0.00 0.00 0.00 87 1011.3
20260507072055 56 44 0.0 0.9 0.00 0.00 0.00 87 1011.3
20260507071529 56 44 0.0 0.9 0.00 0.00 0.00 87 1011.3
20260507071005 56 44 0.0 0.9 0.00 0.00 0.00 88 1011.2
20260507070439 56 44 0.0 0.9 0.00 0.00 0.00 88 1011.2
20260507065934 55 44 0.0 1.7 0.00 0.00 0.00 89 1011.2
20260507065405 55 44 0.0 1.7 0.00 0.00 0.00 89 1011.1
20260507064309 55 44 0.0 0.9 0.00 0.00 0.00 90 1011.2
20260507063810 55 44 0.0 0.9 0.00 0.00 0.00 90 1011.2
20260507063242 55 44 0.0 0.0 0.00 0.00 0.00 90 1011.2
20260507062713 55 44 0.0 0.0 0.00 0.00 0.00 91 1011.2
20260507062147 54 44 0.0 0.9 0.00 0.00 0.00 91 1011.2
20260507061646 54 44 0.0 0.9 0.00 0.00 0.00 91 1011.1
20260507061118 54 44 0.0 1.7 0.00 0.00 0.00 91 1011.1
20260507060615 54 44 0.0 1.7 0.00 0.00 0.00 91 1011.2
20260507060113 54 44 0.0 0.9 0.00 0.00 0.00 92 1011.1
20260507055611 54 44 0.0 1.7 0.00 0.00 0.00 92 1011.1
20260507055046 53 44 0.0 1.7 0.00 0.00 0.00 92 1011.0
20260507054042 53 44 0.0 0.9 0.00 0.00 0.00 93 1010.9
20260507053514 53 44 0.0 0.9 0.00 0.00 0.00 92 1010.8
20260507053011 53 44 0.0 0.9 0.00 0.00 0.00 92 1010.8
20260507052446 52 44 0.0 0.9 0.00 0.00 0.00 92 1010.7
20260507051937 52 44 0.0 0.9 0.00 0.00 0.00 92 1010.8
20260507051434 52 44 0.0 0.9 0.00 0.00 0.00 92 1010.7
20260507050921 52 44 0.0 0.9 0.00 0.00 0.00 92 1010.7
20260507050419 51 44 0.0 0.9 0.00 0.00 0.00 92 1010.6
20260507045351 51 44 0.0 0.0 0.00 0.00 0.00 92 1010.5
20260507044848 51 44 0.0 0.9 0.00 0.00 0.00 92 1010.5
20260507044322 51 44 0.0 0.9 0.00 0.00 0.00 93 1010.4
20260507042724 51 44 0.0 0.0 0.00 0.00 0.00 93 1010.1
20260507042201 51 44 0.0 0.9 0.00 0.00 0.00 93 1010.0
20260507041657 51 44 0.0 0.9 0.00 0.00 0.00 93 1010.0
20260507041151 52 44 0.0 0.9 0.00 0.00 0.00 93 1010.0
20260507040648 52 44 0.0 0.0 0.00 0.00 0.00 93 1010.0
20260507040123 52 44 0.0 1.7 0.00 0.00 0.00 93 1010.0
20260507035115 52 44 0.0 0.9 0.00 0.00 0.00 93 1009.9
20260507034110 51 44 0.0 0.9 0.00 0.00 0.00 93 1009.9
20260507033530 51 44 0.0 0.9 0.00 0.00 0.00 93 1009.8
20260507033004 51 44 0.0 0.9 0.00 0.00 0.00 93 1009.8
20260507032437 51 44 0.0 0.9 0.00 0.00 0.00 93 1009.8
20260507030316 52 44 0.0 0.0 0.00 0.00 0.00 93 1009.8
20260507025815 52 44 0.0 0.0 0.00 0.00 0.00 93 1009.9
20260507024744 52 44 0.0 0.0 0.00 0.00 0.00 93 1009.9
20260507024239 52 44 0.0 0.9 0.00 0.00 0.00 93 1009.8
20260507023736 52 44 0.0 0.9 0.00 0.00 0.00 93 1009.8
20260507023234 52 44 0.0 0.9 0.00 0.00 0.00 93 1009.9
20260507022731 52 44 0.9 2.6 0.00 0.00 0.00 93 1009.9
20260507021217 53 44 0.0 0.0 0.00 0.00 0.00 93 1009.9
20260507020711 53 44 0.0 0.0 0.00 0.00 0.00 93 1009.9
20260507020143 53 44 0.0 0.0 0.00 0.00 0.00 93 1009.8
20260507015642 53 44 0.0 0.0 0.00 0.00 0.00 93 1009.8
20260507015114 53 44 0.0 0.0 0.00 0.00 0.00 93 1009.7
20260507014550 53 44 0.0 0.0 0.00 0.00 0.00 93 1009.7
20260507013456 53 44 0.0 0.0 0.00 0.00 0.00 93 1009.7
20260507012956 53 44 0.0 0.0 0.00 0.00 0.00 93 1009.6
20260507012430 53 44 0.0 0.0 0.00 0.00 0.00 93 1009.6
20260507011901 53 44 0.0 0.0 0.00 0.00 0.00 93 1009.6
20260507010834 53 44 0.0 0.0 0.00 0.00 0.00 93 1009.6
20260507010326 53 44 0.0 0.0 0.00 0.00 0.00 93 1009.6
20260507005759 53 44 0.0 0.0 0.00 0.00 0.00 93 1009.6
20260507005257 53 44 0.0 0.0 0.00 0.00 0.00 93 1009.6
20260507004758 53 44 0.0 0.0 0.00 0.00 0.00 93 1009.6
20260507004254 53 44 0.9 3.5 0.00 0.00 0.00 93 1009.5
20260507003733 54 44 0.9 3.5 0.00 0.00 0.00 93 1009.5
20260507003233 54 44 0.0 2.6 0.00 0.00 0.00 93 1009.5
20260507002706 54 44 0.0 0.0 0.00 0.00 0.00 93 1009.5
20260507002204 54 44 0.0 0.0 0.00 0.00 0.00 93 1009.5
20260507001659 54 44 0.0 0.9 0.00 0.00 0.00 93 1009.6
20260507001157 54 44 0.0 0.9 0.00 0.00 0.00 93 1009.6
20260507000632 54 44 0.0 0.0 0.00 0.00 0.00 94 1009.6
20260506235053 54 44 0.0 0.0 0.00 0.00 0.00 94 1009.7
20260506234552 54 44 0.0 0.0 0.00 0.00 0.00 94 1009.6
20260506234038 54 44 0.0 0.0 0.00 0.00 0.00 93 1009.6
20260506233539 54 44 0.0 0.0 0.00 0.00 0.00 93 1009.6
20260506232509 54 44 0.0 0.0 0.00 0.00 0.00 93 1009.7
20260506232006 54 44 0.0 0.0 0.00 0.00 0.00 93 1009.7
20260506231438 54 44 0.0 0.9 0.00 0.00 0.00 93 1009.7
20260506230936 54 44 0.0 0.9 0.00 0.00 0.00 93 1009.7
20260506230437 54 44 0.0 3.5 0.00 0.00 0.00 93 1009.7
20260506225924 54 44 0.0 3.5 0.00 0.00 0.00 93 1009.7
20260506225402 54 44 0.0 3.5 0.00 0.00 0.00 93 1009.9
20260506224852 54 36 0.0 1.7 0.00 0.00 0.00 93 1009.8
20260506224348 54 36 0.0 1.7 0.00 0.00 0.00 93 1009.7
20260506223821 54 36 0.0 0.9 0.00 0.00 0.00 93 1009.7
20260506223320 54 36 0.0 0.9 0.00 0.00 0.00 94 1009.6
20260506222751 54 36 0.0 0.9 0.00 0.00 0.00 94 1009.6
20260506222248 54 36 0.0 0.9 0.00 0.00 0.00 94 1009.6
20260506221723 54 36 0.0 0.0 0.00 0.00 0.00 94 1009.6
20260506221220 54 36 0.0 0.0 0.00 0.00 0.00 94 1009.5
20260506220127 54 36 0.0 2.6 0.00 0.00 0.00 93 1009.6
20260506215607 53 36 0.0 2.6 0.00 0.00 0.00 93 1009.6
20260506215053 53 36 0.0 0.9 0.00 0.00 0.00 93 1009.5
20260506214548 53 36 0.0 0.0 0.00 0.00 0.00 93 1009.5
20260506214045 53 36 0.0 1.7 0.00 0.00 0.00 93 1009.5
20260506213035 53 36 0.0 0.0 0.00 0.00 0.00 93 1009.4
20260506212506 53 36 0.0 0.0 0.00 0.00 0.00 93 1009.4
20260506212005 53 36 0.0 0.0 0.00 0.00 0.00 93 1009.4
20260506211500 53 36 0.0 0.0 0.00 0.00 0.00 93 1009.4
20260506210959 53 36 0.0 0.9 0.00 0.00 0.00 93 1009.4
20260506210445 52 36 0.0 0.9 0.00 0.00 0.00 93 1009.4
20260506205953 52 36 0.0 0.0 0.00 0.00 0.00 93 1009.4
20260506205426 52 36 0.0 0.0 0.00 0.00 0.00 92 1009.4
20260506204854 52 36 0.0 0.0 0.00 0.00 0.00 92 1009.3
20260506203824 52 36 0.0 0.9 0.00 0.00 0.00 92 1009.3
20260506203323 52 36 0.0 0.9 0.00 0.00 0.00 92 1009.3
20260506202757 53 36 0.0 0.9 0.00 0.00 0.00 92 1009.2
20260506201306 53 36 0.0 0.0 0.00 0.00 0.00 92 1009.3
20260506200144 53 36 0.0 0.0 0.00 0.00 0.00 92 1009.1
20260506195222 54 36 0.0 0.0 0.00 0.00 0.00 92 1009.0
20260506194708 54 36 0.0 0.0 0.00 0.00 0.00 92 1008.9
20260506194136 54 36 0.0 0.0 0.00 0.00 0.00 92 1008.9
20260506193648 55 36 0.0 0.9 0.00 0.00 0.00 92 1008.9
20260506192608 55 36 0.0 0.0 0.00 0.00 0.00 92 1008.8
20260506191439 55 36 0.0 0.0 0.00 0.00 0.00 91 1008.9
20260506190913 55 36 0.0 0.0 0.00 0.00 0.00 91 1008.9
20260506190505 55 36 0.0 0.0 0.00 0.00 0.00 91 1008.8
20260506185856 55 36 0.0 0.0 0.00 0.00 0.00 91 1008.8
20260506185340 55 36 0.0 1.7 0.00 0.00 0.00 91 1008.7
20260506184836 55 36 0.0 1.7 0.00 0.00 0.00 91 1008.6
20260506184334 56 36 0.0 0.9 0.00 0.00 0.00 91 1008.6
20260506183807 56 36 0.0 0.9 0.00 0.00 0.00 90 1008.5
20260506182737 56 36 0.0 0.0 0.00 0.00 0.00 90 1008.4
20260506182236 56 36 0.0 0.0 0.00 0.00 0.00 90 1008.4
20260506181705 56 36 0.0 0.9 0.00 0.00 0.00 90 1008.2
20260506181204 57 36 0.0 0.9 0.00 0.00 0.00 90 1008.2
20260506180637 57 36 0.0 0.9 0.00 0.00 0.00 89 1008.2
20260506180114 58 36 0.0 0.9 0.00 0.00 0.00 89 1008.2
20260506175543 58 36 0.0 0.0 0.00 0.00 0.00 88 1008.3
20260506175039 58 36 0.0 0.9 0.00 0.00 0.00 88 1008.2
20260506174514 59 36 0.0 0.0 0.00 0.00 0.00 88 1008.1
20260506173947 59 36 0.0 0.0 0.00 0.00 0.00 87 1008.1
20260506173418 59 36 0.0 0.0 0.00 0.00 0.00 87 1008.1
20260506172426 59 36 0.0 0.0 0.00 0.00 0.00 86 1007.9
20260506171913 59 36 0.0 0.9 0.00 0.00 0.00 86 1008.0
20260506171410 59 36 0.0 0.9 0.00 0.00 0.00 86 1007.9
20260506170859 59 36 0.0 0.9 0.00 0.00 0.00 86 1007.9
20260506170346 59 36 0.0 0.9 0.00 0.00 0.00 86 1007.8
20260506165845 59 36 0.0 0.9 0.00 0.00 0.00 87 1007.7
20260506165326 59 36 0.0 0.9 0.00 0.00 0.00 87 1007.7
20260506164836 59 36 0.0 0.0 0.00 0.00 0.00 88 1007.8
20260506164259 59 36 0.0 0.0 0.00 0.00 0.00 88 1007.7
20260506163730 59 36 0.0 0.0 0.00 0.00 0.00 88 1007.8
20260506163229 59 36 0.0 0.0 0.00 0.00 0.00 90 1007.8
20260506162700 58 36 0.0 0.0 0.00 0.00 0.00 89 1007.8
20260506162212 58 36 0.0 0.0 0.00 0.00 0.00 90 1007.9
20260506161644 58 36 0.0 0.0 0.00 0.00 0.00 90 1007.9
20260506161107 58 36 0.0 0.0 0.00 0.00 0.00 90 1008.0
20260506160540 58 36 0.0 0.0 0.00 0.00 0.00 90 1008.0
20260506160039 58 36 0.0 0.0 0.00 0.00 0.00 90 1007.8
20260506155510 58 36 0.0 0.0 0.00 0.00 0.00 90 1007.8
20260506154442 58 36 0.9 3.5 0.00 0.00 0.00 91 1007.6
20260506152854 57 36 0.9 2.6 0.00 0.00 0.00 91 1008.0
20260506151814 57 36 0.0 0.9 0.00 0.00 0.00 92 1008.0
20260506151305 57 36 0.0 0.9 0.00 0.00 0.00 92 1008.1
20260506150238 57 36 0.9 3.5 0.00 0.00 0.00 92 1008.1
20260506145710 57 36 0.9 3.5 0.00 0.00 0.00 91 1008.2
20260506145212 57 36 0.0 0.9 0.00 0.00 0.00 92 1008.3
20260506144705 57 36 0.0 1.7 0.00 0.00 0.00 92 1008.3
20260506144203 56 36 0.0 1.7 0.00 0.00 0.00 91 1008.2
20260506143653 56 36 0.0 0.0 0.00 0.00 0.00 91 1008.1
20260506143124 56 36 0.0 0.9 0.00 0.00 0.00 91 1008.1
20260506142536 56 36 0.0 0.9 0.00 0.00 0.00 91 1008.0
20260506141521 56 36 0.0 2.6 0.00 0.00 0.00 91 1007.9
20260506141007 56 36 0.0 2.6 0.00 0.00 0.00 91 1008.0
20260506140451 56 36 0.0 0.9 0.00 0.00 0.00 91 1008.1
20260506135936 56 36 0.0 1.7 0.00 0.00 0.00 91 1008.3
20260506134839 56 36 0.0 0.0 0.00 0.00 0.00 90 1008.2
20260506134338 57 36 0.0 0.9 0.00 0.00 0.00 90 1008.4
20260506132806 57 36 0.0 1.7 0.00 0.00 0.00 90 1008.4
20260506132317 58 35 0.0 1.7 0.00 0.00 0.00 90 1008.5
20260506131740 58 35 0.0 0.0 0.00 0.00 0.00 89 1008.4
20260506131220 58 35 0.0 0.0 0.00 0.00 0.00 89 1008.3
20260506130703 58 35 0.0 0.0 0.00 0.00 0.00 89 1008.3
20260506130201 58 35 0.0 0.0 0.00 0.00 0.00 88 1008.4
20260506125112 58 36 0.0 0.0 0.00 0.00 0.00 87 1008.5
20260506124610 58 36 0.0 0.0 0.00 0.00 0.00 85 1008.4
20260506124040 58 36 0.0 0.0 0.00 0.00 0.00 85 1008.5
20260506123014 59 36 0.0 0.9 0.00 0.00 0.00 85 1008.4
20260506122445 59 36 0.0 2.6 0.00 0.00 0.00 86 1008.3
20260506121942 59 36 0.0 2.6 0.00 0.00 0.00 85 1008.4
20260506120433 59 36 0.0 1.7 0.00 0.00 0.00 87 1008.4
20260506115933 59 36 0.0 1.7 0.00 0.00 0.00 87 1008.4
20260506115412 59 36 0.0 3.5 0.00 0.00 0.00 86 1008.6
20260506114842 59 30 0.0 3.5 0.00 0.00 0.00 87 1008.6
20260506113817 58 29 0.0 2.6 0.00 0.00 0.00 87 1008.8
20260506113248 58 29 0.0 3.5 0.00 0.00 0.00 88 1008.8
20260506112720 58 86 0.0 3.5 0.00 0.00 0.00 88 1008.8
20260506112219 58 50 0.0 1.7 0.00 0.00 0.00 89 1008.9
20260506111651 58 50 0.0 1.7 0.00 0.00 0.00 89 1008.9
20260506111151 58 36 0.9 2.6 0.00 0.00 0.00 89 1009.0
20260506110627 58 46 0.9 3.5 0.00 0.00 0.00 90 1009.0
20260506105607 57 199 0.0 0.0 0.00 0.00 0.00 91 1009.2
20260506105035 57 199 0.0 0.0 0.00 0.00 0.00 91 1009.3
20260506104506 57 199 0.0 0.0 0.00 0.00 0.00 91 1009.4
20260506104007 57 199 0.0 0.0 0.00 0.00 0.00 91 1009.4
20260506103443 57 199 0.0 0.9 0.00 0.00 0.00 91 1009.4
20260506102921 57 199 0.0 0.9 0.00 0.00 0.00 91 1009.4
20260506102417 57 195 0.0 0.0 0.00 0.00 0.00 91 1009.5
20260506101851 57 195 0.0 0.0 0.00 0.00 0.00 91 1009.5
20260506101348 56 195 0.0 0.0 0.00 0.00 0.00 91 1009.5
20260506100850 56 195 0.0 0.9 0.00 0.00 0.00 91 1009.4
20260506095843 56 196 0.0 0.0 0.00 0.00 0.00 92 1009.4